Location: *
(43.4667°N, 11.6833°E)
Time: 20:37:09
(UTC+00:00)

Cosmos 2322 Rocket - Pass Details

Date: 19 July 2019
Orbit: 833 x 850 km, 71.0° (Epoch: 23 August)

Event Time Altitude Azimuth Distance (km) Brightness Sun altitude
Rises 19:28:51 0° 194° (SSW) 3,398 5.1 -6.8°
Reaches altitude 10° 19:31:18 10° 191° (S) 2,468 4.4 -7.2°
Maximum altitude 19:36:55 66° 111° (ESE) 929 2.2 -8.0°
Drops below altitude 10° 19:42:34 10° 30° (NNE) 2,484 4.8 -8.8°
Sets 19:45:02 0° 28° (NNE) 3,423 5.5 -9.1°
